Details for Transavia (Netherlands) at EDDM




Go Back


Latest METAR
Local Time

EDDM 250420Z VRB02KT 0900 0400E R26R/0650V1900U R26L/0275N FG FEW001 11/11 Q1019 BECMG 1500

25/05/2018, 06:48:41

Description
Results
Transavia (Netherlands) Logo
Number of Pilots based at EDDM
0 Pilots Based here
Number of Transavia (Netherlands) Flights Departed from EDDM
2 Flights Departed
Number of Transavia (Netherlands) Flights Arrived at EDDM
3 Flights Arrived
Number of Transavia (Netherlands) Schedules Departing from EDDM
1 Schedules
Number of Transavia (Netherlands) Schedules Arriving at EDDM
1 Schedules
Number of Transavia (Netherlands) Schedules Departing from EDDM availible today
1 Schedules Today
Number of Transavia (Netherlands) Schedules Arriving at EDDM availible today
1 Schedules Today
Average Landing Rate at EDDM
-179 fpm
Transavia (Netherlands) Average Landing Rate at EDDM
-109 fpm
Total Fuel Purchased at EDDM by Transavia (Netherlands)
7,116.41 kgs / 15,688.84 lbs

Pilots Based at EDDM


Pilot ID
Pilot Name
Pilot Rank
No. of Flights
No. of Flying Hours
There are no pilots assigned to this hub!   Will you be the first?
Content